{"data":{"norad_id":47621,"epoch":"2026-09-19T12:24:49.955904Z","epoch_age_seconds":110426,"freshness":"FRESH","line1":"1 47621U 21012B   26262.51724486  .00094973  00000+0  11920-2 0  9997","line2":"2 47621  53.1507 222.7602 0004108  78.6092 281.5382 15.58967203310075","mean_motion":15.58967203,"eccentricity":0.0004108,"inclination_deg":53.1507,"raan_deg":222.7602,"arg_perigee_deg":78.6092,"mean_anomaly_deg":281.5382,"bstar":0.001192,"rev_number":31007,"period_min":92.368845042342,"perigee_km":387.86430671489,"apogee_km":393.42553794227,"semimajor_km":6768.7819223286,"source":"CELESTRAK","updated_at":"2026-09-20T09:00:38.596950Z"}}